Location: downtown San Diego
(32.7310°N, 117.1990°W)
Time: 23:50:12
(UTC-07:00)

Aureole 3 Rocket - Pass Details

Date: 19 May 2017
Orbit: 399 x 1743 km, 82.5° (Epoch: 24 July)

Event Time Altitude Azimuth Distance (km) Brightness Sun altitude
Exits shadow 21:24:43 14° 174° (S) 3,141 6.2 -18.7°
Maximum altitude 21:31:51 67° 95° (E) 1,186 4.2 -19.9°
Drops below altitude 10° 21:37:39 10° 14° (NNE) 2,525 6.5 -20.8°
Sets 21:39:43 0° 11° (NNE) 3,297 7.2 -21.1°
